Wind_Speed
1 2 2 3 5 5 4 3 2 1 2 2 3 3 3 3 3 4 4 4 4 4 3 3 3 3 2 3 3 4 4 3 4 3 3 3 4 5 5 6 6 6 7
2 3 3 4 5 4 3 2 1 1 2 3 3 4 4 4 4 4 5 4 4 5 4 4 4 3 3 3 4 4 4 3 4 4 4 4 4 4 5 6 6 7 7
4 4 4 5 5 4 3 2 2 2 3 4 5 5 5 5 5 5 5 5 5 6 6 5 5 4 4 4 5 5 4 4 4 5 5 5 5 5 5 5 6 6 7
5 5 5 5 5 5 4 4 4 5 5 5 5 6 6 6 6 7 6 6 6 6 6 6 6 5 5 5 5 5 5 5 5 5 5 6 6 6 6 6 6 7 7
6 6 6 5 6 6 5 5 5 6 6 6 6 6 6 7 7 7 6 6 6 6 6 6 6 5 5 5 5 5 5 5 6 6 6 6 6 6 6 6 6 7 7
7 6 6 6 6 6 6 6 6 6 6 6 6 6 6 6 6 5 5 5 6 6 5 5 6 6 6 6 6 6 6 6 7 7 6 6 6 6 6 6 7 7 7
7 7 7 6 6 6 7 7 7 7 6 6 6 6 7 6 5 4 4 5 5 5 5 5 5 5 6 5 5 6 6 7 7 7 7 6 7 7 7 7 7 7 8
7 7 7 7 7 7 7 7 7 7 7 7 7 6 6 6 5 4 4 5 5 5 5 4 4 5 5 5 5 6 6 6 7 7 7 7 7 6 6 7 7 7 7
7 7 7 8 8 8 8 8 8 8 8 8 7 6 6 6 6 5 5 5 5 5 5 5 5 5 5 6 6 6 6 6 6 7 7 7 6 6 6 7 7 7 7
8 8 8 8 9 9 9 9 9 9 8 8 8 7 8 7 7 7 6 6 6 6 6 6 5 6 5 6 6 6 6 6 6 7 7 6 6 7 7 7 7 8 8
9 9 9 9 9 10 10 9 9 9 9 9 8 8 8 8 8 8 7 7 7 7 7 7 6 6 5 5 6 7 7 6 6 7 7 6 6 6 7 6 7 7 8
10 10 10 10 10 11 11 11 11 11 10 10 10 9 9 9 8 8 8 7 8 8 8 7 6 6 5 5 6 6 6 6 6 7 7 7 6 7 7 7 7 7 8
10 11 11 11 11 12 12 12 12 12 11 11 10 10 9 9 9 8 8 8 8 8 8 7 7 6 6 6 6 6 6 7 6 7 7 7 7 7 8 8 8 8 8
11 11 12 12 12 13 13 13 12 13 12 11 11 10 9 9 9 8 7 7 7 7 7 6 6 6 6 6 6 7 7 7 7 7 7 7 7 7 8 8 8 8 8
11 11 12 12 13 13 13 13 13 13 12 11 10 10 9 9 9 8 8 7 7 7 6 6 6 7 7 7 7 7 7 7 7 7 7 8 8 8 8 9 9 9 9
12 12 12 12 12 12 12 12 12 12 12 11 10 10 9 9 9 8 7 6 6 6 6 7 7 7 7 7 7 7 7 8 8 8 9 9 9 9 9 9 9 9 9
13 12 12 12 12 12 12 11 11 11 11 10 10 10 9 9 8 7 7 6 6 6 6 6 7 7 7 7 7 7 7 8 9 9 9 9 9 10 10 10 10 10 10
12 12 12 12 12 11 12 11 10 10 10 9 9 9 9 9 8 8 7 7 7 7 7 6 6 6 6 6 7 7 8 8 9 10 10 10 10 11 11 11 11 11 11
12 12 12 12 11 11 10 10 10 9 9 8 8 8 8 8 8 8 8 7 7 7 7 7 7 6 6 6 7 8 8 9 9 9 9 10 11 11 12 12 13 13 13
12 11 11 11 11 10 10 10 10 9 9 9 9 8 8 8 8 9 9 8 8 8 8 7 7 7 7 8 8 9 9 9 10 10 10 10 11 12 12 12 13 13 13
12 12 11 11 11 11 11 10 10 10 9 9 9 9 8 8 8 8 8 9 8 8 9 8 8 8 8 9 9 10 10 10 11 11 11 11 11 11 11 11 12 12 12
13 12 11 11 11 11 11 11 11 11 10 9 9 9 9 9 8 8 8 9 9 9 9 9 10 9 9 10 10 10 10 10 10 10 11 11 11 11 11 11 11 11 11
12 12 12 12 11 11 11 11 11 10 10 10 10 9 10 9 9 9 9 9 9 10 10 10 10 10 10 10 10 9 9 10 10 10 11 11 10 10 10 10 11 11 11
12 12 13 13 12 12 11 11 10 10 10 10 10 10 10 10 10 9 9 9 9 9 9 9 10 10 10 10 10 10 10 10 10 10 10 10 10 10 10 10 10 10 11
13 13 13 13 13 13 12 12 11 11 11 11 11 11 11 10 10 10 10 9 10 10 10 9 9 10 10 10 10 9 10 10 10 10 10 10 10 10 10 10 10 10 11
14 13 13 13 13 13 13 12 12 12 11 11 11 11 11 11 11 11 10 10 11 11 11 11 10 10 11 11 10 10 10 10 10 10 10 10 10 10 10 10 10 10 11
Wind_Direction
302 315 334 342 340 339 333 325 283 262 292 306 316 314 305 297 293 278 268 265 269 268 267 271 277 267 261 266 264 263 269 245 232 235 247 252 257 262 264 272 272 269 266
278 296 314 323 330 333 327 316 269 268 286 297 305 307 301 293 295 286 274 272 272 268 268 265 281 283 273 265 259 263 266 257 242 257 267 267 261 263 266 270 271 270 272
275 289 301 310 316 324 311 286 278 292 291 293 301 302 302 292 291 285 274 272 273 268 266 267 267 272 269 262 258 256 259 256 256 260 267 271 269 266 266 267 270 274 276
273 286 292 297 305 314 307 295 294 298 291 290 294 294 300 301 293 284 272 274 278 274 267 262 263 265 272 266 262 257 256 257 258 260 265 268 271 269 264 271 267 275 281
274 282 286 291 296 303 304 300 297 293 292 292 292 292 299 301 297 288 272 272 274 271 271 267 266 267 276 268 260 255 252 253 254 259 263 267 270 271 273 276 275 278 280
273 275 280 285 288 295 296 295 295 291 287 288 289 292 295 306 309 289 270 272 270 266 269 266 267 270 275 275 267 260 253 254 255 258 258 262 265 271 273 275 278 279 276
270 271 274 280 283 287 293 291 291 289 287 287 289 293 296 305 304 292 280 274 271 268 269 273 271 271 270 273 274 270 262 258 255 255 254 258 262 266 270 274 276 276 273
270 271 273 274 279 285 288 290 289 289 287 288 289 293 294 295 295 287 279 271 268 264 264 267 266 268 262 265 274 273 269 260 260 257 252 254 259 263 265 268 270 272 272
269 270 271 274 278 283 288 287 285 286 285 284 283 284 287 287 284 281 279 274 267 263 262 264 270 269 270 267 269 269 269 263 264 262 257 257 259 264 264 266 271 275 275
271 270 271 274 274 280 283 281 282 282 282 282 280 281 283 281 279 277 275 270 263 263 263 263 266 265 268 270 269 267 270 269 261 264 262 263 262 267 271 270 271 272 275
269 271 272 271 270 274 276 275 279 281 282 280 278 279 278 276 276 276 273 266 261 258 257 261 266 271 272 273 269 266 266 271 261 264 263 263 264 267 274 275 271 270 272
270 271 272 271 270 272 273 275 279 281 282 282 281 278 277 275 272 269 267 266 262 253 251 261 268 274 274 276 276 268 268 268 262 261 261 264 265 265 273 279 273 267 271
270 272 272 271 273 273 271 274 277 278 278 276 278 278 275 271 268 265 263 263 261 259 261 264 268 274 275 270 274 272 270 270 267 265 259 265 271 274 276 278 271 268 267
271 273 272 272 273 272 271 272 274 274 274 273 273 273 272 267 262 258 266 270 270 271 271 271 268 274 276 272 269 269 270 267 263 265 266 268 271 276 278 278 277 276 273
270 273 272 274 274 273 272 272 276 277 272 272 272 273 272 268 267 266 272 278 276 273 271 274 276 275 275 273 271 267 263 263 267 267 267 268 270 273 274 275 276 274 274
271 272 273 275 276 274 274 275 274 275 271 270 270 271 269 267 268 265 269 270 269 270 272 270 270 271 272 271 269 269 266 264 266 267 269 268 269 272 273 274 271 270 271
271 272 273 275 274 273 273 273 275 271 268 265 264 265 265 266 267 265 261 265 266 268 271 270 270 270 270 269 271 270 270 273 271 274 275 270 268 270 271 273 272 270 270
271 272 271 272 271 272 273 270 271 266 262 261 259 260 260 263 264 261 261 262 266 267 268 269 273 273 271 270 272 272 275 278 277 277 278 274 271 271 272 272 272 269 268
269 270 271 270 269 268 270 268 268 263 261 258 256 257 259 258 261 263 266 265 266 267 268 269 266 268 271 272 274 275 277 279 280 277 280 278 274 274 276 276 273 271 268
269 271 272 271 266 265 266 267 266 264 263 260 256 256 259 259 260 263 263 262 261 263 266 269 271 274 276 277 277 279 282 281 281 279 281 283 281 282 280 276 272 272 267
271 274 273 271 269 266 263 263 264 264 262 258 258 255 258 261 262 263 267 265 264 263 263 267 272 275 277 277 277 279 281 280 282 281 280 284 286 284 282 279 278 271 268
273 273 271 267 266 262 262 264 267 264 263 260 264 262 262 263 262 261 262 266 266 267 267 268 272 275 278 281 281 281 280 279 281 284 284 285 285 284 282 279 277 274 272
272 272 270 267 265 262 263 264 265 261 261 260 261 262 262 264 264 262 257 261 265 268 271 272 275 278 278 282 283 284 283 284 283 285 286 285 283 283 283 281 280 277 273
270 271 270 267 265 261 261 262 262 262 262 262 261 262 263 263 260 259 259 261 264 268 275 277 278 279 278 279 282 283 282 284 286 285 288 288 285 281 280 277 279 278 275
270 272 269 266 265 263 260 260 262 263 263 261 262 262 263 265 264 260 262 265 269 272 275 278 279 278 279 280 281 284 286 283 283 284 286 288 285 279 278 279 281 280 278
270 273 272 270 266 263 260 259 262 263 263 264 263 262 263 265 265 266 269 269 269 270 271 273 276 277 278 280 279 283 286 287 285 286 288 291 289 281 279 280 282 283 282
Height
5891 5890 5889 5887 5886 5883 5880 5880 5880 5881 5882 5882 5882 5882 5881 5880 5879 5879 5879 5878 5878 5878 5878 5877 5877 5877 5876 5876 5876 5875 5875 5875 5875 5875 5875 5875 5874 5874 5874 5874 5873 5873 5872
5890 5889 5888 5887 5885 5883 5880 5880 5880 5881 5882 5882 5881 5881 5880 5879 5878 5878 5878 5877 5877 5877 5877 5876 5876 5876 5876 5875 5875 5875 5874 5874 5873 5874 5874 5874 5873 5873 5873 5872 5872 5871 5870
5889 5888 5888 5887 5885 5883 5881 5880 5881 5882 5882 5881 5881 5880 5879 5878 5877 5876 5876 5876 5876 5876 5875 5875 5875 5875 5874 5874 5874 5873 5873 5873 5873 5873 5873 5872 5872 5872 5872 5871 5870 5869 5868
5888 5887 5887 5886 5885 5884 5882 5881 5881 5881 5881 5880 5880 5879 5877 5876 5874 5874 5874 5874 5874 5874 5874 5874 5874 5873 5873 5873 5872 5872 5872 5872 5872 5872 5872 5871 5871 5870 5870 5870 5869 5868 5867
5887 5886 5886 5885 5885 5884 5883 5882 5881 5881 5880 5879 5878 5877 5876 5874 5871 5869 5871 5873 5873 5873 5873 5872 5872 5872 5872 5871 5871 5871 5871 5871 5871 5871 5870 5870 5869 5869 5869 5868 5868 5867 5866
5886 5885 5884 5884 5884 5883 5882 5882 5881 5880 5879 5879 5878 5876 5875 5872 5868 5866 5869 5871 5871 5871 5871 5871 5871 5870 5870 5870 5870 5870 5870 5870 5870 5869 5869 5869 5868 5868 5867 5867 5867 5866 5865
5884 5884 5883 5883 5882 5882 5881 5881 5880 5879 5878 5878 5877 5875 5874 5871 5869 5868 5869 5870 5870 5870 5870 5870 5869 5869 5869 5869 5869 5869 5868 5868 5868 5868 5868 5867 5867 5866 5866 5866 5866 5865 5864
5883 5882 5882 5881 5881 5880 5880 5879 5878 5877 5877 5876 5875 5874 5873 5871 5870 5869 5869 5869 5869 5869 5869 5869 5868 5868 5868 5868 5867 5867 5867 5867 5867 5866 5866 5866 5865 5865 5865 5865 5864 5864 5863
5881 5881 5880 5880 5879 5878 5878 5877 5876 5876 5875 5874 5873 5872 5872 5871 5870 5869 5868 5868 5868 5868 5868 5868 5867 5867 5867 5866 5866 5866 5866 5865 5865 5865 5865 5864 5864 5864 5864 5863 5863 5862 5862
5879 5879 5879 5878 5877 5877 5876 5875 5875 5874 5873 5872 5872 5871 5870 5869 5868 5868 5867 5867 5866 5866 5866 5866 5866 5865 5865 5865 5864 5864 5864 5864 5864 5863 5863 5863 5862 5862 5862 5861 5861 5861 5861
5878 5877 5877 5876 5876 5875 5874 5873 5873 5872 5871 5870 5870 5869 5868 5868 5867 5866 5866 5865 5865 5865 5864 5864 5864 5864 5863 5863 5863 5863 5863 5862 5862 5862 5861 5861 5861 5861 5860 5860 5860 5860 5859
5876 5875 5875 5874 5873 5873 5872 5871 5871 5870 5869 5868 5867 5867 5866 5866 5865 5865 5864 5864 5863 5863 5863 5863 5862 5862 5862 5862 5861 5861 5861 5861 5860 5860 5860 5859 5859 5859 5859 5858 5858 5858 5857
5874 5873 5872 5872 5871 5870 5870 5869 5868 5868 5867 5866 5865 5865 5864 5864 5863 5863 5862 5862 5862 5861 5861 5861 5861 5860 5860 5860 5860 5860 5859 5859 5859 5859 5858 5858 5858 5858 5857 5857 5856 5856 5856
5871 5871 5870 5869 5869 5868 5867 5866 5866 5865 5864 5864 5863 5863 5862 5862 5861 5861 5860 5860 5860 5859 5859 5859 5859 5859 5859 5858 5858 5858 5858 5858 5857 5857 5857 5856 5856 5856 5855 5855 5854 5854 5854
5869 5868 5867 5867 5866 5865 5864 5864 5863 5862 5861 5861 5860 5860 5860 5859 5859 5859 5858 5858 5858 5858 5858 5858 5857 5857 5857 5857 5856 5856 5856 5856 5856 5855 5855 5855 5854 5854 5853 5853 5852 5852 5852
5866 5866 5865 5864 5863 5862 5861 5861 5860 5859 5858 5858 5858 5857 5857 5857 5857 5857 5857 5856 5856 5856 5856 5856 5856 5855 5855 5855 5855 5854 5854 5854 5854 5853 5853 5853 5852 5852 5851 5850 5850 5850 5849
5863 5863 5862 5861 5860 5859 5858 5857 5857 5856 5855 5855 5855 5854 5854 5854 5854 5854 5854 5854 5854 5854 5854 5854 5854 5854 5853 5853 5853 5852 5852 5852 5851 5851 5851 5850 5850 5849 5849 5848 5847 5847 5846
5860 5860 5859 5858 5857 5856 5855 5854 5853 5853 5852 5852 5851 5851 5851 5851 5851 5852 5852 5852 5852 5852 5852 5852 5852 5852 5851 5851 5851 5851 5850 5850 5849 5849 5848 5847 5847 5846 5846 5845 5844 5844 5843
5857 5857 5856 5855 5854 5853 5852 5851 5851 5850 5849 5849 5848 5848 5848 5848 5849 5849 5850 5850 5850 5850 5850 5850 5850 5850 5850 5850 5849 5849 5848 5847 5847 5846 5845 5845 5844 5843 5842 5842 5841 5840 5840
5854 5853 5853 5852 5851 5850 5850 5849 5849 5848 5847 5847 5846 5846 5846 5846 5846 5847 5847 5848 5848 5848 5848 5848 5848 5848 5848 5847 5847 5846 5846 5845 5844 5843 5843 5842 5841 5840 5839 5838 5837 5836 5836
5851 5851 5850 5849 5849 5848 5847 5847 5846 5846 5845 5845 5845 5844 5844 5844 5844 5844 5845 5845 5846 5846 5846 5846 5846 5846 5846 5845 5845 5844 5843 5842 5841 5841 5840 5839 5838 5836 5835 5834 5833 5833 5832
5849 5848 5847 5847 5846 5845 5845 5844 5844 5843 5843 5843 5843 5842 5842 5842 5842 5842 5843 5843 5843 5844 5844 5844 5844 5844 5843 5843 5842 5841 5841 5840 5839 5838 5837 5836 5835 5834 5833 5832 5831 5830 5829
5846 5846 5845 5844 5843 5843 5842 5842 5841 5841 5841 5841 5841 5840 5840 5840 5840 5840 5840 5841 5841 5841 5841 5841 5841 5841 5841 5840 5839 5839 5838 5837 5836 5835 5834 5833 5832 5831 5830 5829 5828 5827 5827
5843 5843 5842 5841 5841 5840 5840 5839 5839 5839 5838 5838 5838 5838 5838 5837 5837 5837 5838 5838 5838 5839 5839 5839 5839 5838 5838 5837 5837 5836 5835 5834 5834 5833 5832 5830 5829 5828 5828 5826 5825 5825 5824
5841 5840 5839 5838 5838 5837 5837 5837 5836 5836 5836 5836 5836 5836 5835 5835 5835 5835 5835 5835 5836 5836 5836 5836 5836 5835 5835 5835 5834 5833 5832 5831 5831 5830 5829 5828 5827 5826 5825 5824 5823 5822 5821
5838 5837 5837 5835 5835 5834 5834 5834 5834 5834 5833 5833 5833 5833 5833 5833 5833 5833 5833 5833 5833 5833 5833 5833 5833 5832 5832 5831 5831 5830 5830 5829 5828 5827 5826 5825 5824 5823 5822 5821 5820 5819 5818